Location: Kapuskasing
(49.3803°N, 82.4001°W)
Time: 11:12:58
(UTC-04:00)

RS-44 - Pass Details

Date: 23 March 2026
Orbit: 1175 x 1510 km, 82.5° (Epoch: 11 April)

Event Time Altitude Azimuth Distance (km) Brightness Sun altitude
Rises 00:22:22 0° 352° (N) 4,444 ? -37.1°
Reaches altitude 10° 00:27:08 10° 17° (NNE) 3,534 ? -37.4°
Maximum altitude 00:31:19 14° 47° (NE) 3,257 ? -37.7°
Enters shadow 00:35:26 10° 76° (ENE) 3,598 ? -37.9°
